This is the latest recevied weather packets stored in our database for station/object W8LMG. If no packets are shown the sender has not sent any weather packets the latest 10 day(s).
| Time | Temp. | Humidity | Pressure | Rain* | Wind** | Luminosity | Snow |
|---|---|---|---|---|---|---|---|
| 1778044673 | 13.89° C | 81% | 1012 hPa | 0 mm | - | 0 W/m² | - |
| 1778044370 | 13.89° C | 80% | 1012.3 hPa | 0 mm | - | 0 W/m² | - |
| 1778044068 | 13.89° C | 80% | 1012.1 hPa | 0 mm | - | 0 W/m² | - |
| 1778043764 | 13.89° C | 80% | 1012.6 hPa | 0 mm | - | 0 W/m² | - |
| 1778043461 | 13.89° C | 79% | 1012.4 hPa | 0 mm | - | 0 W/m² | - |
| 1778043158 | 13.89° C | 80% | 1012.5 hPa | 0 mm | - | 0 W/m² | - |
| 1778042855 | 13.89° C | 80% | 1012.6 hPa | 0 mm | - | 0 W/m² | - |
| 1778042552 | 13.89° C | 79% | 1012.5 hPa | 0 mm | - | 0 W/m² | - |
| 1778042250 | 13.89° C | 80% | 1012.5 hPa | 0 mm | - | 0 W/m² | - |
| 1778041947 | 13.89° C | 81% | 1012.4 hPa | 0 mm | - | 0 W/m² | - |
| 1778041646 | 13.89° C | 81% | 1012.4 hPa | 0 mm | - | 0 W/m² | - |
| 1778041344 | 13.89° C | 80% | 1012.4 hPa | 0 mm | - | 0 W/m² | - |
| 1778041042 | 13.89° C | 80% | 1012.2 hPa | 0 mm | - | 0 W/m² | - |
| 1778040739 | 13.89° C | 81% | 1012.2 hPa | 0 mm | - | 0 W/m² | - |
| 1778040436 | 13.89° C | 80% | 1012.3 hPa | 0 mm | - | 0 W/m² | - |
| 1778040133 | 13.89° C | 79% | 1012.3 hPa | 0 mm | - | 0 W/m² | - |
| 1778039830 | 13.89° C | 78% | 1012.4 hPa | 0 mm | - | 0 W/m² | - |
| 1778039527 | 13.89° C | 78% | 1012.4 hPa | 0 mm | - | 0 W/m² | - |
| 1778039223 | 13.89° C | 78% | 1012 hPa | 0 mm | - | 0 W/m² | - |
| 1778038921 | 13.89° C | 77% | 1012.3 hPa | 0 mm | - | 0 W/m² | - |
| 1778038618 | 13.89° C | 76% | 1012.3 hPa | 0 mm | - | 0 W/m² | - |
| 1778038315 | 14.44° C | 74% | 1012.4 hPa | 0 mm | - | 0 W/m² | - |
| 1778038012 | 14.44° C | 77% | 1012.5 hPa | 0 mm | - | 0 W/m² | - |
| 1778037709 | 14.44° C | 69% | 1012.3 hPa | 0 mm | - | 0 W/m² | - |
| 1778037406 | 14.44° C | 69% | 1012.2 hPa | 0 mm | - | 0 W/m² | - |
* Rain latest hour (hover to see other rain measurements)
** Current wind speed in m/s (hover to see current wind gust speed)